Location: Colorado Springs
(38.8340°N, 104.8210°W)
Time: 11:44:02
(UTC-07:00)

Vanguard 3 - Pass Details

Date: 25 October 2017
Orbit: 509 x 3263 km, 33.3° (Epoch: 21 November)

Event Time Altitude Azimuth Distance (km) Brightness Sun altitude
Rises 08:39:08 0° 277° (W) 5,471 10.8 13.6°
Reaches altitude 10° 08:43:46 10° 270° (W) 3,971 10.2 14.4°
Maximum altitude 08:52:04 34° 211° (SSW) 1,773 9.0 15.8°
Drops below altitude 10° 08:57:13 10° 147° (SSE) 2,424 11.0 16.6°
Sets 08:59:24 0° 137° (SE) 3,127 11.7 17.0°
